Hinckley, MN

6:27 AM CDT on April 26, 2018 (GMT -0500)
Hinckley

Weather History for K04W - September, 2012

Change the Weather History Date:

Tuesday, September 18, 2012

  Actual Average (KJMR) Record (KJMR)
Temperature  
Mean Temperature 44 °F -  
Max Temperature 57 °F 70 °F 89 °F (1955)
Min Temperature 32 °F 43 °F 28 °F (1981)
Degree Days  
Heating Degree Days 20    
Moisture  
Dew Point 30 °F    
Average Humidity 63    
Maximum Humidity 100    
Minimum Humidity 29    
Precipitation  
Precipitation 0.00 in - - ()
Sea Level Pressure  
Sea Level Pressure 29.97 in    
Wind  
Wind Speed 3 mph (NW)    
Max Wind Speed 10 mph    
Max Gust Speed 12 mph    
Visibility 10 miles    
Events      
Averages and records for this station are not official NWS values.
T = Trace of Precipitation, MM = Missing Value Source: NWS Daily Summary

Daily Weather History Graph

Daily Weather History Graph

Search for Another Location

Airport or City:

Astronomy

Sep. 18, 2012 Rise Set
Actual Time 6:54 AM CDT 7:16 PM CDT
Civil Twilight 6:24 AM CDT 7:45 PM CDT
Nautical Twilight 5:48 AM CDT 8:21 PM CDT
Astronomical Twilight 5:12 AM CDT 8:57 PM CDT
Moon 10:08 AM CDT (9/18) 8:24 PM CDT (9/18)
Length of Visible Light 13h 21m
Length of Day
12h 21m
Waxing Crescent, 9% of the Moon is Illuminated
Sep 18
Waxing Crescent
Sep 22
First Quarter
Sep 29
Full
Oct 8
Last Quarter
Oct 15
New

Hourly Weather History & Observations

Time (CDT) Temp. Windchill Dew Point Humidity Pressure Visibility Wind Dir Wind Speed Gust Speed Precip Events Conditions
12:15 AM 41.0 °F - 35.6 °F 81% 29.99 in 10.0 mi Calm Calm - N/A   Clear
12:35 AM 41.0 °F 39.0 °F 35.6 °F 81% 29.99 in 10.0 mi NW 3.5 mph - N/A   Mostly Cloudy
12:55 AM 39.2 °F 37.0 °F 35.6 °F 87% 29.99 in 10.0 mi NW 3.5 mph - N/A   Mostly Cloudy
1:15 AM 39.2 °F 37.0 °F 35.6 °F 87% 29.99 in 10.0 mi NW 3.5 mph - N/A   Scattered Clouds
1:55 AM 39.2 °F 35.9 °F 33.8 °F 81% 29.99 in 10.0 mi North 4.6 mph - N/A   Scattered Clouds
2:15 AM 37.4 °F 33.8 °F 33.8 °F 87% 29.99 in 10.0 mi NNW 4.6 mph - N/A   Mostly Cloudy
2:35 AM 37.4 °F 32.8 °F 33.8 °F 87% 29.99 in 10.0 mi NNW 5.8 mph - N/A   Mostly Cloudy
2:55 AM 37.4 °F 32.1 °F 33.8 °F 87% 29.99 in 10.0 mi NNW 6.9 mph - N/A   Scattered Clouds
3:15 AM 37.4 °F 33.8 °F 33.8 °F 87% 29.99 in 10.0 mi NNW 4.6 mph - N/A   Clear
3:35 AM 35.6 °F 31.7 °F 32.0 °F 87% 29.98 in 10.0 mi NNW 4.6 mph - N/A   Clear
3:55 AM 35.6 °F 31.7 °F 32.0 °F 87% 29.98 in 10.0 mi NW 4.6 mph - N/A   Clear
4:15 AM 35.6 °F 31.7 °F 33.8 °F 93% 29.99 in 10.0 mi NNW 4.6 mph - N/A   Scattered Clouds
4:35 AM 35.6 °F 32.8 °F 32.0 °F 87% 29.99 in 10.0 mi NNW 3.5 mph - N/A   Mostly Cloudy
4:55 AM 35.6 °F - 32.0 °F 87% 29.99 in 10.0 mi Calm Calm - N/A   Mostly Cloudy
5:15 AM 33.8 °F 30.8 °F 32.0 °F 93% 29.99 in 10.0 mi NNW 3.5 mph - N/A   Scattered Clouds
5:35 AM 35.6 °F - 32.0 °F 87% 29.99 in 10.0 mi Calm Calm - N/A   Clear
5:55 AM 33.8 °F - 32.0 °F 93% 30.00 in 10.0 mi Calm Calm - N/A   Clear
6:15 AM 33.8 °F - 32.0 °F 93% 30.00 in 10.0 mi Calm Calm - N/A   Clear
6:35 AM 32.0 °F - 32.0 °F 100% 30.01 in 10.0 mi Calm Calm - N/A   Clear
7:15 AM 32.0 °F 28.7 °F 32.0 °F 100% 30.01 in 10.0 mi NNW 3.5 mph - N/A   Clear
7:35 AM 33.8 °F 30.8 °F 32.0 °F 93% 30.02 in 10.0 mi NNW 3.5 mph - N/A   Clear
7:55 AM 35.6 °F 31.7 °F 33.8 °F 93% 30.02 in 10.0 mi NW 4.6 mph - N/A   Clear
8:15 AM 37.4 °F 33.8 °F 33.8 °F 87% 30.02 in 10.0 mi North 4.6 mph - N/A   Clear
8:35 AM 39.2 °F 35.9 °F 33.8 °F 81% 30.02 in 10.0 mi North 4.6 mph - N/A   Clear
8:55 AM 41.0 °F 39.0 °F 33.8 °F 76% 30.02 in 10.0 mi North 3.5 mph - N/A   Clear
9:15 AM 44.6 °F 41.4 °F 32.0 °F 61% 30.02 in 10.0 mi North 5.8 mph - N/A   Clear
9:35 AM 44.6 °F 41.4 °F 30.2 °F 57% 30.02 in 10.0 mi North 5.8 mph - N/A   Clear
10:15 AM 48.2 °F - 28.4 °F 46% 30.02 in 10.0 mi NNE 8.1 mph - N/A   Clear
10:35 AM 48.2 °F - 26.6 °F 43% 30.02 in 10.0 mi North 6.9 mph - N/A   Clear
10:55 AM 50.0 °F - 26.6 °F 40% 30.02 in 10.0 mi NW 5.8 mph - N/A   Clear
11:15 AM 50.0 °F - 28.4 °F 43% 30.02 in 10.0 mi NW 9.2 mph - N/A   Clear
11:35 AM 50.0 °F - 26.6 °F 40% 30.02 in 10.0 mi NNW 9.2 mph - N/A   Clear
11:55 AM 51.8 °F - 26.6 °F 38% 30.02 in 10.0 mi NW 8.1 mph - N/A   Clear
12:15 PM 51.8 °F - 26.6 °F 38% 30.01 in 10.0 mi West 5.8 mph - N/A   Clear
12:35 PM 53.6 °F - 24.8 °F 33% 30.01 in 10.0 mi North 6.9 mph - N/A   Clear
12:55 PM 53.6 °F - 26.6 °F 35% 30.01 in 10.0 mi North 6.9 mph 11.5 mph N/A   Clear
1:15 PM 53.6 °F - 24.8 °F 33% 30.00 in 10.0 mi Calm Calm - N/A   Clear
1:35 PM 53.6 °F - 26.6 °F 35% 29.99 in 10.0 mi NNW 5.8 mph - N/A   Clear
1:55 PM 55.4 °F - 26.6 °F 33% 29.98 in 10.0 mi NNW 8.1 mph - N/A   Clear
2:15 PM 55.4 °F - 26.6 °F 33% 29.98 in 10.0 mi West 8.1 mph - N/A   Clear
2:35 PM 53.6 °F - 24.8 °F 33% 29.97 in 10.0 mi Calm Calm - N/A   Scattered Clouds
2:55 PM 55.4 °F - 24.8 °F 31% 29.96 in 10.0 mi Calm Calm - N/A   Scattered Clouds
3:15 PM 57.2 °F - 26.6 °F 31% 29.96 in 10.0 mi WSW 4.6 mph - N/A   Scattered Clouds
3:35 PM 55.4 °F - 26.6 °F 33% 29.95 in 10.0 mi Calm Calm - N/A   Scattered Clouds
3:55 PM 57.2 °F - 28.4 °F 33% 29.95 in 10.0 mi West 9.2 mph - N/A   Scattered Clouds
4:15 PM 55.4 °F - 28.4 °F 36% 29.95 in 10.0 mi WNW 9.2 mph - N/A   Scattered Clouds
4:35 PM 55.4 °F - 28.4 °F 36% 29.94 in 10.0 mi WSW 10.4 mph - N/A   Clear
4:55 PM 55.4 °F - 24.8 °F 31% 29.94 in 10.0 mi WNW 6.9 mph - N/A   Clear
5:15 PM 55.4 °F - 23.0 °F 29% 29.94 in 10.0 mi Calm Calm - N/A   Clear
5:35 PM 55.4 °F - 26.6 °F 33% 29.93 in 10.0 mi NW 8.1 mph - N/A   Clear
5:55 PM 55.4 °F - 26.6 °F 33% 29.94 in 10.0 mi Calm Calm - N/A   Clear
6:15 PM 53.6 °F - 26.6 °F 35% 29.93 in 10.0 mi Calm Calm - N/A   Clear
6:35 PM 53.6 °F - 26.6 °F 35% 29.93 in 10.0 mi Calm Calm - N/A   Clear
6:55 PM 51.8 °F - 28.4 °F 41% 29.93 in 10.0 mi Calm Calm - N/A   Clear
7:15 PM 50.0 °F - 28.4 °F 43% 29.93 in 10.0 mi Calm Calm - N/A   Scattered Clouds
7:35 PM 44.6 °F - 32.0 °F 61% 29.93 in 10.0 mi Calm Calm - N/A   Scattered Clouds
7:55 PM 42.8 °F - 32.0 °F 66% 29.93 in 10.0 mi Calm Calm - N/A   Clear
8:35 PM 39.2 °F - 30.2 °F 70% 29.92 in 10.0 mi Calm Calm - N/A   Clear
8:55 PM 37.4 °F - 32.0 °F 81% 29.92 in 10.0 mi Calm Calm - N/A   Clear
9:15 PM 37.4 °F - 32.0 °F 81% 29.91 in 10.0 mi Calm Calm - N/A   Scattered Clouds
9:35 PM 35.6 °F - 32.0 °F 87% 29.91 in 10.0 mi Calm Calm - N/A   Overcast
9:55 PM 35.6 °F - 32.0 °F 87% 29.91 in 10.0 mi Calm Calm - N/A   Overcast
10:15 PM 37.4 °F - 32.0 °F 81% 29.90 in 10.0 mi Calm Calm - N/A   Overcast
10:35 PM 37.4 °F - 33.8 °F 87% 29.90 in 10.0 mi Calm Calm - N/A   Overcast
10:55 PM 39.2 °F - 32.0 °F 75% 29.88 in 10.0 mi Calm Calm - N/A   Overcast
11:15 PM 41.0 °F - 32.0 °F 70% 29.88 in 10.0 mi Calm Calm - N/A   Overcast
11:35 PM 44.6 °F 43.1 °F 32.0 °F 61% 29.88 in 10.0 mi SSE 3.5 mph - N/A   Overcast
11:55 PM 44.6 °F 42.2 °F 32.0 °F 61% 29.86 in 10.0 mi SSE 4.6 mph - N/A   Overcast